FW9898 Weather Reports


time (UTC)temp
C
wind
direction
speed
KPH
gust
KPH
rain 1hr
cm
rain 24hr
cm
rain mn
cm
humidity
%
barometer
mb
20260507112308 22 185 1.6 1.6 0.00 0.00 0.00 91 1013.0
20260507111806 22 188 0.0 0.0 0.00 0.00 0.00 90 1012.8
20260507111302 22 169 0.0 0.0 0.00 0.00 0.00 90 1013.4
20260507110759 22 170 1.6 1.6 0.00 0.00 0.00 88 1013.6
20260507110255 22 241 4.8 6.4 0.00 0.00 0.00 88 1013.8
20260507105752 22 189 1.6 1.6 0.00 0.00 0.00 88 1013.2
20260507105248 22 225 1.6 1.6 0.00 0.00 0.00 88 1013.1
20260507104746 22 225 3.2 4.8 0.00 0.00 0.00 87 1013.1
20260507104242 22 225 3.2 4.8 0.00 0.00 0.00 88 1013.4
20260507103738 22 236 3.2 4.8 0.00 0.00 0.00 88 1013.5
20260507103234 22 226 1.6 1.6 0.00 0.00 0.00 88 1013.7
20260507102731 22 221 6.4 6.4 0.00 0.00 0.00 88 1013.3
20260507102228 22 225 1.6 1.6 0.00 0.00 0.00 89 1013.2
20260507101724 22 214 1.6 1.6 0.00 0.00 0.00 89 1014.1
20260507101219 22 189 3.2 4.8 0.00 0.00 0.00 88 1014.0
20260507100716 22 204 1.6 1.6 0.00 0.00 0.00 87 1014.4
20260507100215 22 203 3.2 4.8 0.00 0.00 0.00 87 1014.2
20260507095713 23 212 1.6 1.6 0.00 0.00 0.00 87 1014.0
20260507095209 23 205 1.6 1.6 0.00 0.00 0.00 86 1013.7
20260507094705 23 218 3.2 4.8 0.00 0.00 0.00 86 1013.5
20260507094156 23 185 3.2 4.8 0.00 0.00 0.00 85 1013.4
20260507093653 23 190 1.6 1.6 0.00 0.00 0.00 85 1013.4
20260507093152 23 190 1.6 1.6 0.00 0.00 0.00 85 1013.4
20260507092649 23 193 3.2 4.8 0.00 0.00 0.00 85 1013.3
20260507092145 23 186 0.0 0.0 0.00 0.00 0.00 84 1013.3
20260507091642 23 197 4.8 4.8 0.00 0.00 0.00 84 1013.3
20260507091138 23 181 3.2 4.8 0.00 0.00 0.00 84 1013.3
20260507090633 23 203 3.2 4.8 0.00 0.00 0.00 83 1013.3
20260507090131 23 217 8.0 8.0 0.00 0.00 0.00 83 1013.0
20260507085628 23 179 1.6 1.6 0.00 0.00 0.00 83 1013.1
20260507085125 23 196 1.6 1.6 0.00 0.00 0.00 83 1012.9
20260507084621 23 195 4.8 4.8 0.00 0.00 0.00 83 1012.8
20260507084118 23 211 4.8 4.8 0.00 0.00 0.00 84 1012.6
20260507083615 23 179 3.2 4.8 0.00 0.00 0.00 84 1012.5
20260507083112 23 194 4.8 6.4 0.00 0.00 0.00 84 1012.6
20260507082608 23 204 0.0 1.6 0.00 0.00 0.00 84 1012.7
20260507082104 23 212 1.6 4.8 0.00 0.00 0.00 85 1012.6
20260507081601 23 195 0.0 1.6 0.00 0.00 0.00 85 1012.7
20260507081058 23 197 3.2 4.8 0.00 0.00 0.00 86 1012.5
20260507080553 23 205 4.8 6.4 0.00 0.00 0.00 86 1012.5
20260507080050 23 201 1.6 1.6 0.00 0.00 0.00 87 1012.7
20260507075545 23 176 3.2 4.8 0.00 0.00 0.00 88 1012.5
20260507075042 23 186 1.6 4.8 0.00 0.00 0.00 88 1012.4
20260507074539 23 192 3.2 4.8 0.00 0.00 0.00 89 1012.3
20260507074037 23 193 3.2 4.8 0.00 0.00 0.00 88 1011.9
20260507073533 23 115 8.0 11.3 0.00 0.00 0.00 88 1012.0
20260507073030 23 196 3.2 4.8 0.00 0.00 0.00 88 1011.8
20260507072527 23 175 4.8 6.4 0.00 0.00 0.00 88 1011.5
20260507072024 23 208 1.6 1.6 0.00 0.00 0.00 88 1011.7
20260507071522 23 160 3.2 4.8 0.00 0.00 0.00 87 1011.9
20260507071018 23 146 4.8 6.4 0.00 0.00 0.00 88 1012.4
20260507070515 23 201 4.8 4.8 0.00 0.00 0.00 88 1012.6
20260507070013 23 115 3.2 4.8 0.00 0.00 0.00 87 1012.5
20260507065508 23 212 3.2 4.8 0.00 0.00 0.00 87 1012.4
20260507065006 23 177 4.8 6.4 0.00 0.00 0.00 87 1012.5
20260507064504 23 161 3.2 6.4 0.00 0.00 0.00 87 1012.7
20260507064002 23 199 3.2 4.8 0.00 0.00 0.00 87 1012.9
20260507063458 23 187 3.2 4.8 0.00 0.00 0.00 87 1012.8
20260507062956 23 171 1.6 1.6 0.00 0.00 0.00 88 1013.3
20260507062452 23 189 4.8 6.4 0.00 0.00 0.00 88 1013.2
20260507061950 23 192 1.6 4.8 0.00 0.00 0.00 88 1013.2
20260507061448 23 225 3.2 4.8 0.00 0.00 0.00 88 1013.6
20260507060946 23 180 4.8 6.4 0.00 0.00 0.00 88 1013.8
20260507060442 23 179 3.2 4.8 0.00 0.00 0.00 88 1014.1
20260507055939 23 177 3.2 4.8 0.00 0.00 0.00 88 1013.9
20260507055434 23 194 0.0 1.6 0.00 0.00 0.00 88 1014.0
20260507054931 23 248 3.2 4.8 0.00 0.00 0.00 88 1014.0
20260507054427 23 198 0.0 1.6 0.00 0.00 0.00 88 1013.9
20260507053925 23 187 3.2 4.8 0.00 0.00 0.00 88 1014.2
20260507053422 23 183 1.6 1.6 0.00 0.00 0.00 88 1014.2
20260507052921 23 193 0.0 0.0 0.00 0.00 0.00 87 1014.3
20260507052418 23 211 1.6 4.8 0.00 0.00 0.00 87 1014.3
20260507051915 23 219 3.2 4.8 0.00 0.00 0.00 87 1014.7
20260507051413 23 172 1.6 1.6 0.00 0.00 0.00 88 1014.1
20260507050909 23 185 0.0 1.6 0.00 0.00 0.00 88 1014.4
20260507050406 23 185 1.6 1.6 0.00 0.00 0.00 89 1014.5
20260507045903 23 185 1.6 1.6 0.00 0.00 0.00 89 1015.0
20260507045359 23 185 1.6 1.6 0.00 0.00 0.00 89 1014.7
20260507044857 23 185 1.6 1.6 0.00 0.00 0.00 89 1014.7
20260507044353 23 142 1.6 1.6 0.00 0.00 0.00 89 1014.5
20260507043849 23 186 1.6 1.6 0.00 0.00 0.00 89 1014.6
20260507043346 23 195 0.0 1.6 0.00 0.00 0.00 89 1014.4
20260507042842 23 205 0.0 1.6 0.00 0.00 0.00 89 1014.4
20260507042338 23 213 1.6 1.6 0.00 0.00 0.00 89 1014.6
20260507041835 23 176 3.2 4.8 0.00 0.00 0.00 89 1014.4
20260507041331 23 184 1.6 1.6 0.00 0.00 0.00 89 1014.6
20260507040829 23 204 0.0 1.6 0.00 0.00 0.00 89 1014.6
20260507040324 23 196 4.8 8.0 0.00 0.00 0.00 89 1014.4
20260507035821 23 178 0.0 1.6 0.00 0.00 0.00 89 1014.3
20260507035316 23 184 4.8 6.4 0.00 0.00 0.00 89 1014.3
20260507034814 23 192 4.8 4.8 0.00 0.00 0.00 89 1014.2
20260507034311 23 183 3.2 6.4 0.00 0.00 0.00 89 1014.0
20260507033809 23 170 3.2 4.8 0.00 0.00 0.00 90 1014.3
20260507033306 23 169 3.2 4.8 0.00 0.00 0.00 90 1013.8
20260507032803 23 168 4.8 6.4 0.00 0.00 0.00 90 1014.2
20260507032259 23 185 3.2 4.8 0.00 0.00 0.00 91 1014.1
20260507031756 23 194 4.8 6.4 0.00 0.00 0.00 91 1013.9
20260507031253 23 185 3.2 4.8 0.00 0.00 0.00 91 1014.0
20260507030749 23 186 4.8 4.8 0.00 0.00 0.00 91 1013.8
20260507030247 23 186 3.2 4.8 0.00 0.00 0.00 91 1013.9
20260507025744 23 188 4.8 4.8 0.00 0.00 0.00 91 1014.1
20260507025241 23 193 3.2 4.8 0.00 0.00 0.00 91 1014.1
20260507024739 22 183 0.0 1.6 0.00 0.00 0.00 91 1014.4
20260507024236 22 182 3.2 4.8 0.00 0.00 0.00 91 1014.2
20260507023732 22 182 3.2 6.4 0.00 0.00 0.00 91 1013.7
20260507023229 23 182 4.8 6.4 0.00 0.00 0.00 91 1013.8
20260507022726 23 182 1.6 1.6 0.00 0.00 0.00 90 1013.6
20260507022222 23 182 3.2 4.8 0.00 0.00 0.00 90 1013.8
20260507021718 22 179 4.8 6.4 0.00 0.00 0.00 90 1014.0
20260507021214 22 185 1.6 1.6 0.00 0.00 0.00 90 1014.1
20260507020713 22 192 3.2 4.8 0.00 0.00 0.00 89 1014.3
20260507020208 22 186 3.2 4.8 0.00 0.00 0.00 89 1014.4
20260507015707 22 183 3.2 4.8 0.00 0.00 0.00 89 1014.3
20260507015203 22 155 1.6 1.6 0.00 0.00 0.00 89 1014.4
20260507014700 22 162 4.8 4.8 0.00 0.00 0.00 89 1014.7
20260507014155 22 182 1.6 1.6 0.00 0.00 0.00 89 1014.8
20260507013653 22 191 1.6 1.6 0.00 0.00 0.00 89 1014.6
20260507013150 22 192 4.8 4.8 0.00 0.00 0.00 89 1014.3
20260507012648 22 226 3.2 4.8 0.00 0.00 0.00 89 1014.4
20260507012143 22 167 0.0 1.6 0.00 0.00 0.00 89 1014.4
20260507011641 22 180 1.6 4.8 0.00 0.00 0.00 89 1014.7
20260507011137 22 206 1.6 4.8 0.00 0.00 0.00 90 1014.7
20260507010632 22 182 1.6 1.6 0.00 0.00 0.00 89 1014.9
20260507010128 22 191 1.6 1.6 0.00 0.00 0.00 90 1014.8
20260507005626 22 176 4.8 4.8 0.00 0.00 0.00 90 1014.7
20260507005121 22 183 3.2 4.8 0.00 0.00 0.00 90 1014.7
20260507004619 22 176 1.6 1.6 0.00 0.00 0.00 90 1014.6
20260507004116 22 186 3.2 4.8 0.00 0.00 0.00 90 1014.6
20260507003612 22 164 3.2 4.8 0.00 0.00 0.00 89 1014.5
20260507003107 22 202 3.2 4.8 0.00 0.00 0.00 89 1014.5
20260507002604 22 179 3.2 4.8 0.00 0.00 0.00 89 1014.7
20260507002059 23 200 3.2 4.8 0.00 0.00 0.00 88 1014.7
20260507001557 23 197 4.8 4.8 0.00 0.00 0.00 87 1014.5
20260507001054 23 176 3.2 4.8 0.00 0.00 0.00 87 1014.6
20260507000550 23 185 3.2 4.8 0.00 0.00 0.00 86 1014.5
20260507000046 23 124 6.4 8.0 0.00 0.00 0.00 85 1014.8
20260506235543 23 172 3.2 4.8 0.00 0.00 0.00 84 1014.8
20260506235038 23 171 1.6 1.6 0.00 0.00 0.00 84 1014.8
20260506234536 23 185 1.6 1.6 0.00 0.00 0.00 83 1014.8
20260506234033 23 173 3.2 4.8 0.00 0.00 0.00 82 1014.5
20260506233530 23 169 4.8 4.8 0.00 0.00 0.00 81 1014.5
20260506233027 23 163 0.0 1.6 0.00 0.00 0.00 80 1014.4
20260506232523 23 179 1.6 1.6 0.00 0.00 0.00 79 1014.5
20260506232019 23 179 1.6 4.8 0.00 0.00 0.00 79 1014.5
20260506231517 23 193 1.6 1.6 0.00 0.00 0.00 79 1014.9
20260506231015 23 185 3.2 4.8 0.00 0.00 0.00 79 1014.8
20260506230510 23 194 1.6 4.8 0.00 0.00 0.00 78 1015.1
20260506230008 23 136 0.0 1.6 0.00 0.00 0.00 78 1014.7
20260506225504 23 161 3.2 4.8 0.00 0.00 0.00 78 1014.8
20260506225001 24 160 4.8 4.8 0.00 0.00 0.00 77 1014.7
20260506224458 24 195 4.8 4.8 0.00 0.00 0.00 77 1014.7
20260506223954 24 178 1.6 1.6 0.00 0.00 0.00 78 1014.6
20260506223450 24 187 4.8 6.4 0.00 0.00 0.00 79 1014.4
20260506222948 24 174 3.2 4.8 0.00 0.00 0.00 78 1014.4
20260506222444 25 182 3.2 4.8 0.00 0.00 0.00 79 1014.3
20260506221941 25 196 0.0 1.6 0.00 0.00 0.00 78 1014.4
20260506221438 25 175 1.6 1.6 0.00 0.00 0.00 77 1014.3
20260506220936 25 122 1.6 1.6 0.00 0.00 0.00 76 1014.1
20260506220431 25 161 3.2 4.8 0.00 0.00 0.00 74 1014.1
20260506215928 25 206 6.4 8.0 0.00 0.00 0.00 74 1014.1
20260506215424 25 172 6.4 8.0 0.00 0.00 0.00 74 1014.4
20260506214920 25 183 4.8 6.4 0.00 0.00 0.00 74 1014.4
20260506214417 25 201 4.8 6.4 0.00 0.00 0.00 73 1014.5
20260506213915 25 153 3.2 4.8 0.00 0.00 0.00 74 1014.7
20260506213412 25 141 0.0 1.6 0.00 0.00 0.00 74 1014.7
20260506212909 25 82 4.8 6.4 0.00 0.00 0.00 74 1014.6
20260506212405 25 175 3.2 6.4 0.00 0.00 0.00 74 1014.8
20260506211900 25 183 6.4 8.0 0.00 0.00 0.00 72 1014.8
20260506211356 25 134 3.2 4.8 0.00 0.00 0.00 72 1014.7
20260506210854 25 181 0.0 1.6 0.00 0.00 0.00 72 1014.5
20260506210350 25 174 3.2 4.8 0.00 0.00 0.00 72 1014.7
20260506205848 25 179 6.4 6.4 0.00 0.00 0.00 72 1014.6
20260506205343 25 268 6.4 8.0 0.00 0.00 0.00 73 1014.7
20260506204840 26 212 4.8 6.4 0.00 0.00 0.00 72 1014.8
20260506204338 25 195 3.2 4.8 0.00 0.00 0.00 72 1015.0
20260506203835 25 159 6.4 8.0 0.00 0.00 0.00 72 1014.7
20260506203332 25 173 4.8 8.0 0.00 0.00 0.00 72 1014.8
20260506202829 26 174 8.0 8.0 0.00 0.00 0.00 72 1014.9
20260506202326 26 199 3.2 4.8 0.00 0.00 0.00 71 1015.2
20260506201822 26 178 4.8 6.4 0.00 0.00 0.00 71 1014.9
20260506201320 26 192 3.2 4.8 0.00 0.00 0.00 71 1015.1
20260506200817 26 173 8.0 11.3 0.00 0.00 0.00 70 1014.8
20260506200313 26 177 4.8 4.8 0.00 0.00 0.00 71 1015.1
20260506195809 26 179 4.8 6.4 0.00 0.00 0.00 72 1015.0
20260506195306 26 186 4.8 4.8 0.00 0.00 0.00 71 1015.2
20260506194803 27 205 4.8 6.4 0.00 0.00 0.00 71 1015.2
20260506194259 26 229 1.6 1.6 0.00 0.00 0.00 72 1015.3
20260506193758 26 168 4.8 4.8 0.00 0.00 0.00 71 1015.2
20260506193254 27 228 4.8 8.0 0.00 0.00 0.00 69 1015.4
20260506192750 27 180 3.2 4.8 0.00 0.00 0.00 70 1015.4
20260506192247 27 180 3.2 4.8 0.00 0.00 0.00 70 1015.3
20260506191744 27 172 1.6 1.6 0.00 0.00 0.00 70 1015.6
20260506191240 27 189 4.8 6.4 0.00 0.00 0.00 70 1015.3
20260506190738 27 166 4.8 4.8 0.00 0.00 0.00 71 1015.8
20260506190234 26 172 4.8 6.4 0.00 0.00 0.00 71 1015.7
20260506185731 26 171 4.8 4.8 0.00 0.00 0.00 72 1015.8
20260506185228 26 196 3.2 4.8 0.00 0.00 0.00 71 1016.2
20260506184725 27 203 3.2 4.8 0.00 0.00 0.00 71 1016.2
20260506184222 27 220 3.2 4.8 0.00 0.00 0.00 70 1016.2
20260506183719 27 226 3.2 4.8 0.00 0.00 0.00 69 1016.4
20260506183215 27 193 3.2 4.8 0.00 0.00 0.00 69 1016.3
20260506182712 27 193 3.2 4.8 0.00 0.00 0.00 68 1016.5
20260506182209 27 196 1.6 1.6 0.00 0.00 0.00 70 1016.2
20260506181707 27 204 3.2 4.8 0.00 0.00 0.00 71 1016.3
20260506181204 26 189 3.2 4.8 0.00 0.00 0.00 73 1016.4
20260506180701 26 176 4.8 6.4 0.00 0.00 0.00 74 1016.4
20260506180157 26 153 4.8 6.4 0.00 0.00 0.00 72 1016.3
20260506175654 27 186 4.8 6.4 0.00 0.00 0.00 73 1016.7
20260506175151 26 197 1.6 1.6 0.00 0.00 0.00 74 1016.8
20260506174649 26 190 4.8 6.4 0.00 0.00 0.00 74 1016.7
20260506174145 26 194 3.2 4.8 0.00 0.00 0.00 73 1016.8
20260506173643 26 178 0.0 1.6 0.00 0.00 0.00 75 1016.9
20260506173134 26 145 4.8 8.0 0.00 0.00 0.00 73 1017.0
20260506172631 26 197 3.2 4.8 0.00 0.00 0.00 73 1017.0
20260506172127 26 187 3.2 4.8 0.00 0.00 0.00 73 1017.2
20260506171625 26 184 4.8 8.0 0.00 0.00 0.00 71 1017.3
20260506171122 27 147 6.4 8.0 0.00 0.00 0.00 68 1017.1
20260506170615 26 195 0.0 1.6 0.00 0.00 0.00 70 1017.2
20260506170111 26 172 3.2 4.8 0.00 0.00 0.00 71 1017.1
20260506165610 26 158 4.8 4.8 0.00 0.00 0.00 72 1017.1
20260506165105 26 190 4.8 6.4 0.00 0.00 0.00 71 1017.0
20260506164603 26 200 1.6 1.6 0.00 0.00 0.00 71 1017.2
20260506164100 26 194 4.8 6.4 0.00 0.00 0.00 71 1016.9
20260506163555 26 171 0.0 1.6 0.00 0.00 0.00 71 1017.1
20260506163052 26 188 1.6 1.6 0.00 0.00 0.00 70 1017.2
20260506162548 26 179 1.6 1.6 0.00 0.00 0.00 70 1017.2
20260506162045 26 187 1.6 1.6 0.00 0.00 0.00 70 1017.1
20260506161542 25 149 4.8 6.4 0.00 0.00 0.00 70 1017.3
20260506161033 25 201 4.8 6.4 0.00 0.00 0.00 70 1017.5
20260506160531 25 175 1.6 1.6 0.00 0.00 0.00 70 1017.6
20260506160028 25 191 1.6 4.8 0.00 0.00 0.00 69 1017.5
20260506155527 25 194 1.6 4.8 0.00 0.00 0.00 68 1017.7
20260506153703 25 183 3.2 4.8 0.00 0.00 0.00 64 1017.6
20260506153201 26 215 6.4 8.0 0.00 0.00 0.00 64 1017.4
20260506152658 25 279 1.6 1.6 0.00 0.00 0.00 63 1017.6
20260506152155 26 228 3.2 4.8 0.00 0.00 0.00 62 1017.8
20260506151654 25 226 4.8 6.4 0.00 0.00 0.00 62 1017.6
20260506151150 25 193 3.2 4.8 0.00 0.00 0.00 65 1017.5
20260506150647 25 171 3.2 4.8 0.00 0.00 0.00 66 1017.6
20260506150144 25 183 3.2 4.8 0.00 0.00 0.00 68 1017.4
20260506145641 25 166 4.8 6.4 0.00 0.00 0.00 69 1017.4
20260506145137 25 204 3.2 6.4 0.00 0.00 0.00 69 1017.4
20260506144636 25 179 4.8 4.8 0.00 0.00 0.00 69 1017.5
20260506144132 25 186 6.4 8.0 0.00 0.00 0.00 68 1017.5
20260506143630 25 175 3.2 4.8 0.00 0.00 0.00 70 1017.3
20260506143127 24 186 3.2 4.8 0.00 0.00 0.00 72 1016.9
20260506142626 24 186 6.4 6.4 0.00 0.00 0.00 72 1017.2
20260506142123 24 185 1.6 1.6 0.00 0.00 0.00 74 1017.0
20260506141621 24 193 1.6 1.6 0.00 0.00 0.00 75 1017.0
20260506141119 23 213 1.6 1.6 0.00 0.00 0.00 76 1017.3
20260506140616 23 166 4.8 8.0 0.00 0.00 0.00 75 1017.3
20260506140113 23 186 1.6 1.6 0.00 0.00 0.00 76 1017.3
20260506135610 23 207 1.6 1.6 0.00 0.00 0.00 75 1017.1
20260506135106 23 168 4.8 6.4 0.00 0.00 0.00 77 1017.1
20260506134603 23 169 0.0 1.6 0.00 0.00 0.00 77 1017.0
20260506134058 23 193 3.2 4.8 0.00 0.00 0.00 76 1017.1
20260506133556 23 165 1.6 1.6 0.00 0.00 0.00 77 1016.9
20260506133053 23 183 1.6 1.6 0.00 0.00 0.00 77 1017.3
20260506132550 23 158 1.6 1.6 0.00 0.00 0.00 77 1017.2
20260506132047 23 191 1.6 4.8 0.00 0.00 0.00 77 1017.0
20260506131544 22 161 1.6 1.6 0.00 0.00 0.00 78 1017.1
20260506131041 22 137 1.6 1.6 0.00 0.00 0.00 78 1016.6
20260506130538 22 187 4.8 4.8 0.00 0.00 0.00 79 1016.9
20260506130035 22 180 0.0 1.6 0.00 0.00 0.00 80 1017.1
20260506125533 22 194 0.0 0.0 0.00 0.00 0.00 81 1016.8
20260506125031 22 153 4.8 6.4 0.00 0.00 0.00 82 1017.0
20260506124529 22 192 4.8 6.4 0.00 0.00 0.00 82 1016.7
20260506124026 22 159 1.6 4.8 0.00 0.00 0.00 82 1016.6
20260506123524 22 200 0.0 1.6 0.00 0.00 0.00 83 1016.7
20260506123022 21 194 3.2 4.8 0.00 0.00 0.00 84 1016.8
20260506122518 21 211 1.6 4.8 0.00 0.00 0.00 85 1016.8
20260506122016 21 173 0.0 1.6 0.00 0.00 0.00 86 1016.7
20260506121514 21 191 0.0 1.6 0.00 0.00 0.00 87 1016.6
20260506121010 20 207 1.6 1.6 0.00 0.00 0.00 88 1016.7
20260506120508 20 213 1.6 1.6 0.00 0.00 0.00 90 1017.0
20260506120005 20 183 0.0 0.0 0.00 0.00 0.00 92 1016.5
20260506115503 19 183 0.0 0.0 0.00 0.00 0.00 94 1016.6
20260506115001 19 183 0.0 0.0 0.00 0.00 0.00 95 1016.6
20260506114458 18 182 0.0 0.0 0.00 0.00 0.00 96 1016.6
20260506113956 18 182 0.0 0.0 0.00 0.00 0.00 97 1016.5
20260506113454 18 181 0.0 0.0 0.00 0.00 0.00 97 1016.4
20260506112950 17 181 0.0 0.0 0.00 0.00 0.00 97 1016.5